Погода в Баскаковке

Россия / Смоленская область     54°36′34″N   34°20′47″E
темп.,
°C
ветер,
м/с
пор.,
м/с
влажн.,
%
обл.,
%
осадки,
мм/ч
давл.,
гПа
погр.,
м
9 марта, вт
вт900:00−11ссз379671 0.0 1013188
03:00−12ссз259782 0.1 1015173
06:00−13ссз2498100 0.1 1016127
09:00−12ссз369498 0.1 1018326
12:00−9ссз3580100 0.0 1019832
15:00−8сз3578100 0.1 10191044
18:00−10сз2687100 0.1 1020354
21:00−13сз229499 0.1 102322
10 марта, ср
ср1000:00−15зсз229536 0.0 102420
03:00−16сз119655 0.0 102520
06:00−14вюв1196100 0.1 102536
09:00−13юв2494100 1.2 1025241
12:00−11в3591100 1.0 1025375
15:00−11в4691100 1.6 1026422
18:00−13всв3789100 0.4 1026461
21:00−18в379062 0.4 1029180
11 марта, чт
чт1100:00−20в25950 0.0 103186
03:00−22в23930 0.0 103353
06:00−23вюв23920 0.0 103332
09:00−20вюв25850 0.0 1034171
12:00−14юв35770 0.0 1033347
15:00−11ююв35750 0.0 1032470
18:00−13юв24880 0.0 103178
21:00−18ююв38900 0.0 1031131
12 марта, пт
пт1200:00−20ююв49860 0.0 1031195
03:00−20ю49890 0.0 1030212
06:00−19ююв4109529 0.0 1028240
09:00−16ююв5119049 0.0 1026286
12:00−8ююв61384100 0.0 1024549
15:00−5ююв71378100 0.0 10211064
18:00−6ююв71580100 0.0 10191019
21:00−7ю81691100 0.3 10181033
13 марта, сб
сб1300:00−6ю81591100 0.7 10161039
03:00−6ю81592100 1.6 1014936
06:00−5ю71592100 0.6 1013690
09:00−2ююз51195100 1.3 1013424
12:00+1зюз4995100 0.3 1014736
15:00+2юз4897100 0.5 1014665
18:00+1ююз4898100 0.1 1014512
21:000ююз4997100 0.1 1015513